| time (UTC) | temp C | wind direction | speed KPH | gust KPH | rain 1hr cm | rain 24hr cm | rain mn cm | humidity % | barometer mb |
| 20260903092829 | 15 | 270 | 0.0 | 3.2 | 0.00 | 0.00 | 0.00 | 97 | 1008.5 |
| 20260903091828 | 15 | 270 | 0.0 | 4.8 | 0.00 | 0.00 | 0.00 | 97 | 1008.2 |
| 20260903091331 | 15 | 279 | 0.0 | 4.8 | 0.00 | 0.00 | 0.00 | 97 | 1008.2 |
| 20260903090829 | 15 | 287 | 3.2 | 6.4 | 0.00 | 0.00 | 0.00 | 97 | 1008.2 |
| 20260903090331 | 15 | 258 | 0.0 | 6.4 | 0.00 | 0.00 | 0.00 | 96 | 1008.2 |
| 20260903085829 | 15 | 278 | 0.0 | 6.4 | 0.00 | 0.00 | 0.00 | 96 | 1008.2 |
| 20260903084828 | 15 | 336 | 0.0 | 4.8 | 0.00 | 0.00 | 0.00 | 98 | 1008.2 |
| 20260903084330 | 15 | 294 | 0.0 | 3.2 | 0.00 | 0.00 | 0.00 | 98 | 1008.2 |
| 20260903083829 | 15 | 278 | 1.6 | 3.2 | 0.00 | 0.00 | 0.00 | 98 | 1008.2 |
| 20260903083332 | 15 | 303 | 3.2 | 3.2 | 0.00 | 0.00 | 0.00 | 98 | 1008.2 |
| 20260903082829 | 15 | 278 | 1.6 | 3.2 | 0.00 | 0.00 | 0.00 | 98 | 1008.2 |
| 20260903082331 | 15 | 278 | 0.0 | 3.2 | 0.00 | 0.00 | 0.00 | 98 | 1008.5 |
| 20260903081828 | 15 | 255 | 1.6 | 3.2 | 0.00 | 0.00 | 0.00 | 98 | 1008.5 |
| 20260903081333 | 15 | 306 | 0.0 | 3.2 | 0.00 | 0.00 | 0.00 | 98 | 1008.5 |
| 20260903080829 | 15 | 278 | 0.0 | 1.6 | 0.00 | 0.00 | 0.00 | 98 | 1009.0 |
| 20260903080332 | 15 | 286 | 0.0 | 1.6 | 0.00 | 0.00 | 0.00 | 97 | 1008.5 |
| 20260903075829 | 15 | 276 | 0.0 | 1.6 | 0.00 | 0.00 | 0.00 | 97 | 1008.5 |
| 20260903075331 | 15 | 334 | 0.0 | 1.6 | 0.00 | 0.00 | 0.00 | 97 | 1008.5 |
| 20260903074828 | 15 | 270 | 0.0 | 1.6 | 0.00 | 0.00 | 0.00 | 97 | 1008.5 |
| 20260903074331 | 15 | 270 | 0.0 | 3.2 | 0.00 | 0.00 | 0.00 | 96 | 1008.5 |
| 20260903073828 | 15 | 300 | 0.0 | 3.2 | 0.00 | 0.00 | 0.00 | 96 | 1008.5 |
| 20260903073331 | 15 | 276 | 3.2 | 3.2 | 0.00 | 0.00 | 0.00 | 96 | 1008.5 |
| 20260903072331 | 15 | 299 | 0.0 | 4.8 | 0.00 | 0.00 | 0.00 | 96 | 1009.0 |
| 20260903071827 | 15 | 270 | 1.6 | 3.2 | 0.00 | 0.00 | 0.00 | 97 | 1008.5 |
| 20260903071329 | 15 | 255 | 0.0 | 3.2 | 0.00 | 0.00 | 0.00 | 96 | 1008.5 |
| 20260903070826 | 15 | 261 | 0.0 | 3.2 | 0.00 | 0.00 | 0.00 | 96 | 1008.5 |
| 20260903070329 | 15 | 270 | 0.0 | 3.2 | 0.00 | 0.00 | 0.00 | 96 | 1008.5 |
| 20260903065825 | 15 | 270 | 1.6 | 1.6 | 0.00 | 0.00 | 0.00 | 96 | 1008.5 |
| 20260903065327 | 15 | 270 | 0.0 | 3.2 | 0.00 | 0.00 | 0.00 | 96 | 1009.0 |
| 20260903064825 | 15 | 270 | 0.0 | 3.2 | 0.00 | 0.00 | 0.00 | 96 | 1009.0 |
| 20260903064328 | 15 | 270 | 0.0 | 1.6 | 0.00 | 0.00 | 0.00 | 95 | 1009.0 |
| 20260903063824 | 16 | 285 | 0.0 | 1.6 | 0.00 | 0.00 | 0.00 | 95 | 1009.0 |
| 20260903063327 | 16 | 262 | 1.6 | 3.2 | 0.00 | 0.00 | 0.00 | 94 | 1008.5 |
| 20260903062324 | 15 | 262 | 0.0 | 3.2 | 0.00 | 0.00 | 0.00 | 97 | 1009.0 |
| 20260903061823 | 15 | 270 | 0.0 | 3.2 | 0.00 | 0.00 | 0.00 | 98 | 1009.0 |
| 20260903061326 | 15 | 264 | 0.0 | 3.2 | 0.00 | 0.00 | 0.00 | 98 | 1009.0 |
| 20260903060822 | 15 | 270 | 0.0 | 1.6 | 0.00 | 0.00 | 0.00 | 98 | 1009.0 |
| 20260903060325 | 15 | 246 | 1.6 | 3.2 | 0.00 | 0.00 | 0.00 | 99 | 1009.0 |
| 20260903055822 | 15 | 270 | 0.0 | 3.2 | 0.00 | 0.00 | 0.00 | 99 | 1009.0 |
| 20260903055329 | 15 | 270 | 0.0 | 3.2 | 0.00 | 0.00 | 0.00 | 99 | 1009.0 |
| 20260903054821 | 15 | 254 | 0.0 | 3.2 | 0.00 | 0.00 | 0.00 | 99 | 1009.3 |
| 20260903054322 | 15 | 270 | 0.0 | 1.6 | 0.00 | 0.00 | 0.00 | 99 | 1009.3 |
| 20260903053820 | 15 | 270 | 0.0 | 1.6 | 0.00 | 0.00 | 0.00 | 99 | 1009.0 |
| 20260903053323 | 15 | 255 | 0.0 | 1.6 | 0.00 | 0.00 | 0.00 | 99 | 1009.0 |
| 20260903052325 | 15 | 261 | 0.0 | 0.0 | 0.00 | 0.00 | 0.00 | 99 | 1009.3 |
| 20260903051820 | 15 | 261 | 0.0 | 0.0 | 0.00 | 0.00 | 0.00 | 98 | 1009.3 |
| 20260903051322 | 15 | 261 | 0.0 | 0.0 | 0.00 | 0.00 | 0.00 | 98 | 1009.3 |
| 20260903050819 | 15 | 261 | 0.0 | 0.0 | 0.00 | 0.00 | 0.00 | 98 | 1009.7 |
| 20260903045819 | 15 | 261 | 0.0 | 0.0 | 0.00 | 0.00 | 0.00 | 98 | 1009.0 |
| 20260903044322 | 15 | 261 | 0.0 | 0.0 | 0.00 | 0.00 | 0.00 | 98 | 1009.3 |
| 20260903043817 | 15 | 261 | 0.0 | 0.0 | 0.00 | 0.00 | 0.00 | 98 | 1009.3 |
| 20260903043322 | 15 | 261 | 0.0 | 0.0 | 0.00 | 0.00 | 0.00 | 97 | 1009.3 |
| 20260903042816 | 15 | 261 | 0.0 | 0.0 | 0.00 | 0.00 | 0.00 | 97 | 1009.7 |
| 20260903042320 | 15 | 261 | 0.0 | 0.0 | 0.00 | 0.00 | 0.00 | 97 | 1009.3 |
| 20260903041816 | 15 | 261 | 0.0 | 0.0 | 0.00 | 0.00 | 0.00 | 97 | 1009.7 |
| 20260903041320 | 15 | 261 | 0.0 | 0.0 | 0.00 | 0.00 | 0.00 | 96 | 1009.7 |
| 20260903040815 | 15 | 188 | 0.0 | 0.0 | 0.00 | 0.00 | 0.00 | 96 | 1009.3 |
| 20260903040320 | 15 | 188 | 0.0 | 0.0 | 0.00 | 0.00 | 0.00 | 96 | 1009.7 |
| 20260903035814 | 15 | 188 | 0.0 | 0.0 | 0.00 | 0.00 | 0.00 | 96 | 1009.7 |
| 20260903035319 | 16 | 188 | 0.0 | 0.0 | 0.00 | 0.00 | 0.00 | 96 | 1009.7 |
| 20260903034814 | 16 | 188 | 0.0 | 0.0 | 0.00 | 0.00 | 0.00 | 95 | 1009.7 |
| 20260903034320 | 16 | 188 | 0.0 | 0.0 | 0.00 | 0.00 | 0.00 | 95 | 1009.7 |
| 20260903033813 | 16 | 188 | 0.0 | 0.0 | 0.00 | 0.00 | 0.00 | 95 | 1009.7 |
| 20260903033322 | 16 | 188 | 0.0 | 0.0 | 0.00 | 0.00 | 0.00 | 95 | 1009.3 |
| 20260903032813 | 16 | 188 | 0.0 | 0.0 | 0.00 | 0.00 | 0.00 | 95 | 1009.7 |
| 20260903032318 | 16 | 188 | 0.0 | 0.0 | 0.00 | 0.00 | 0.00 | 94 | 1009.3 |
| 20260903031813 | 16 | 188 | 0.0 | 0.0 | 0.00 | 0.00 | 0.00 | 94 | 1009.7 |
| 20260903031315 | 16 | 188 | 0.0 | 0.0 | 0.00 | 0.00 | 0.00 | 94 | 1009.7 |
| 20260903030315 | 16 | 188 | 0.0 | 0.0 | 0.00 | 0.00 | 0.00 | 93 | 1009.7 |
| 20260903025811 | 16 | 188 | 0.0 | 0.0 | 0.00 | 0.00 | 0.00 | 93 | 1009.7 |
| 20260903025314 | 16 | 188 | 0.0 | 0.0 | 0.00 | 0.00 | 0.00 | 93 | 1009.3 |
| 20260903024810 | 16 | 188 | 0.0 | 0.0 | 0.00 | 0.00 | 0.00 | 92 | 1009.7 |
| 20260903023314 | 17 | 188 | 0.0 | 0.0 | 0.00 | 0.00 | 0.00 | 91 | 1009.7 |
| 20260903022809 | 17 | 188 | 0.0 | 0.0 | 0.00 | 0.00 | 0.00 | 91 | 1009.3 |
| 20260903022310 | 17 | 188 | 0.0 | 0.0 | 0.00 | 0.00 | 0.00 | 90 | 1009.3 |
| 20260903021808 | 17 | 188 | 0.0 | 0.0 | 0.00 | 0.00 | 0.00 | 90 | 1009.7 |
| 20260903021311 | 17 | 188 | 0.0 | 0.0 | 0.00 | 0.00 | 0.00 | 90 | 1009.7 |
| 20260903020808 | 17 | 188 | 0.0 | 0.0 | 0.00 | 0.00 | 0.00 | 89 | 1009.3 |
| 20260903015808 | 17 | 188 | 0.0 | 0.0 | 0.00 | 0.00 | 0.00 | 88 | 1009.7 |
| 20260903014807 | 17 | 188 | 0.0 | 0.0 | 0.00 | 0.00 | 0.00 | 87 | 1009.3 |
| 20260903014309 | 17 | 188 | 0.0 | 0.0 | 0.00 | 0.00 | 0.00 | 87 | 1009.3 |
| 20260903013309 | 18 | 188 | 0.0 | 0.0 | 0.00 | 0.00 | 0.00 | 85 | 1009.3 |
| 20260903012308 | 18 | 188 | 0.0 | 0.0 | 0.00 | 0.00 | 0.00 | 82 | 1009.0 |
| 20260903011805 | 18 | 188 | 0.0 | 0.0 | 0.00 | 0.00 | 0.00 | 82 | 1009.0 |
| 20260903011308 | 18 | 188 | 0.0 | 0.0 | 0.00 | 0.00 | 0.00 | 81 | 1009.3 |
| 20260903010804 | 18 | 188 | 0.0 | 0.0 | 0.00 | 0.00 | 0.00 | 80 | 1009.0 |
| 20260903005804 | 19 | 246 | 0.0 | 0.0 | 0.00 | 0.00 | 0.00 | 80 | 1009.0 |
| 20260903005306 | 19 | 246 | 0.0 | 0.0 | 0.00 | 0.00 | 0.00 | 78 | 1009.0 |
| 20260903004803 | 20 | 246 | 0.0 | 0.0 | 0.00 | 0.00 | 0.00 | 78 | 1008.5 |
| 20260903004303 | 20 | 246 | 0.0 | 1.6 | 0.00 | 0.00 | 0.00 | 77 | 1008.5 |
| 20260903003801 | 20 | 246 | 0.0 | 1.6 | 0.00 | 0.00 | 0.00 | 75 | 1008.5 |
| 20260903002801 | 21 | 255 | 0.0 | 0.0 | 0.00 | 0.00 | 0.00 | 73 | 1008.5 |
| 20260903002306 | 21 | 255 | 0.0 | 0.0 | 0.00 | 0.00 | 0.00 | 72 | 1008.5 |
| 20260903001801 | 21 | 255 | 0.0 | 0.0 | 0.00 | 0.00 | 0.00 | 69 | 1008.5 |
| 20260903001304 | 21 | 255 | 0.0 | 0.0 | 0.00 | 0.00 | 0.00 | 71 | 1008.5 |
| 20260903000800 | 22 | 255 | 0.0 | 0.0 | 0.00 | 0.00 | 0.00 | 68 | 1008.5 |
| 20260903000303 | 22 | 255 | 0.0 | 1.6 | 0.00 | 0.00 | 0.00 | 66 | 1008.5 |
| 20260902235800 | 22 | 255 | 0.0 | 1.6 | 0.00 | 0.00 | 0.00 | 65 | 1008.5 |
| 20260902235301 | 23 | 254 | 0.0 | 1.6 | 0.00 | 0.00 | 0.00 | 65 | 1008.5 |
| 20260902234800 | 23 | 270 | 0.0 | 0.0 | 0.00 | 0.00 | 0.00 | 62 | 1009.0 |
| 20260902234259 | 25 | 320 | 0.0 | 0.0 | 0.00 | 0.00 | 0.00 | 60 | 1008.5 |
| 20260902233758 | 26 | 346 | 0.0 | 1.6 | 0.00 | 0.00 | 0.00 | 56 | 1009.0 |
| 20260902232758 | 25 | 254 | 0.0 | 3.2 | 0.00 | 0.00 | 0.00 | 61 | 1008.5 |
| 20260902232259 | 25 | 297 | 0.0 | 3.2 | 0.00 | 0.00 | 0.00 | 61 | 1009.0 |
| 20260902231259 | 24 | 255 | 0.0 | 3.2 | 0.00 | 0.00 | 0.00 | 60 | 1009.0 |
| 20260902230757 | 24 | 307 | 3.2 | 3.2 | 0.00 | 0.00 | 0.00 | 59 | 1009.0 |
| 20260902230257 | 25 | 278 | 0.0 | 3.2 | 0.00 | 0.00 | 0.00 | 58 | 1009.0 |
| 20260902225756 | 25 | 261 | 0.0 | 3.2 | 0.00 | 0.00 | 0.00 | 59 | 1009.0 |
| 20260902225258 | 24 | 255 | 1.6 | 3.2 | 0.00 | 0.00 | 0.00 | 58 | 1009.0 |
| 20260902224756 | 25 | 325 | 1.6 | 4.8 | 0.00 | 0.00 | 0.00 | 55 | 1009.0 |
| 20260902224258 | 25 | 270 | 0.0 | 4.8 | 0.00 | 0.00 | 0.00 | 55 | 1009.0 |
| 20260902223755 | 26 | 165 | 0.0 | 4.8 | 0.00 | 0.00 | 0.00 | 56 | 1009.0 |
| 20260902223256 | 25 | 270 | 0.0 | 6.4 | 0.00 | 0.00 | 0.00 | 55 | 1008.5 |
| 20260902222755 | 25 | 274 | 0.0 | 6.4 | 0.00 | 0.00 | 0.00 | 57 | 1008.5 |
| 20260902222256 | 25 | 278 | 0.0 | 8.0 | 0.00 | 0.00 | 0.00 | 56 | 1009.0 |
| 20260902221754 | 25 | 319 | 3.2 | 8.0 | 0.00 | 0.00 | 0.00 | 55 | 1008.5 |
| 20260902221255 | 25 | 332 | 3.2 | 6.4 | 0.00 | 0.00 | 0.00 | 53 | 1009.0 |
| 20260902220754 | 27 | 258 | 3.2 | 3.2 | 0.00 | 0.00 | 0.00 | 49 | 1008.5 |
| 20260902220255 | 26 | 325 | 0.0 | 6.4 | 0.00 | 0.00 | 0.00 | 53 | 1009.0 |
| 20260902215753 | 26 | 307 | 3.2 | 6.4 | 0.00 | 0.00 | 0.00 | 53 | 1009.0 |
| 20260902215253 | 26 | 248 | 3.2 | 4.8 | 0.00 | 0.00 | 0.00 | 53 | 1009.0 |
| 20260902214753 | 27 | 254 | 0.0 | 4.8 | 0.00 | 0.00 | 0.00 | 50 | 1009.0 |
| 20260902214253 | 25 | 322 | 3.2 | 8.0 | 0.00 | 0.00 | 0.00 | 54 | 1009.0 |
| 20260902213752 | 26 | 258 | 6.4 | 8.0 | 0.00 | 0.00 | 0.00 | 52 | 1009.3 |
| 20260902213252 | 26 | 344 | 0.0 | 6.4 | 0.00 | 0.00 | 0.00 | 53 | 1009.0 |
| 20260902212751 | 26 | 344 | 6.4 | 6.4 | 0.00 | 0.00 | 0.00 | 50 | 1009.0 |
| 20260902212252 | 26 | 198 | 3.2 | 4.8 | 0.00 | 0.00 | 0.00 | 51 | 1009.3 |
| 20260902211751 | 26 | 188 | 0.0 | 6.4 | 0.00 | 0.00 | 0.00 | 52 | 1009.0 |
| 20260902211252 | 25 | 289 | 1.6 | 8.0 | 0.00 | 0.00 | 0.00 | 51 | 1009.0 |
| 20260902210750 | 25 | 286 | 0.0 | 8.0 | 0.00 | 0.00 | 0.00 | 56 | 1009.0 |
| 20260902210251 | 26 | 294 | 0.0 | 6.4 | 0.00 | 0.00 | 0.00 | 54 | 1009.0 |
| 20260902205749 | 26 | 277 | 0.0 | 6.4 | 0.00 | 0.00 | 0.00 | 55 | 1009.0 |
| 20260902205250 | 27 | 237 | 0.0 | 3.2 | 0.00 | 0.00 | 0.00 | 53 | 1009.3 |
| 20260902204749 | 26 | 341 | 3.2 | 8.0 | 0.00 | 0.00 | 0.00 | 54 | 1009.3 |
| 20260902204250 | 25 | 252 | 3.2 | 6.4 | 0.00 | 0.00 | 0.00 | 54 | 1009.3 |
| 20260902203748 | 26 | 270 | 3.2 | 6.4 | 0.00 | 0.00 | 0.00 | 57 | 1009.3 |
| 20260902203250 | 26 | 301 | 0.0 | 6.4 | 0.00 | 0.00 | 0.00 | 53 | 1009.7 |
| 20260902202748 | 27 | 257 | 0.0 | 4.8 | 0.00 | 0.00 | 0.00 | 55 | 1009.3 |
| 20260902201746 | 25 | 283 | 3.2 | 9.7 | 0.00 | 0.00 | 0.00 | 57 | 1009.3 |
| 20260902201248 | 25 | 288 | 6.4 | 11.3 | 0.00 | 0.00 | 0.00 | 56 | 1009.7 |
| 20260902200746 | 25 | 278 | 0.0 | 11.3 | 0.00 | 0.00 | 0.00 | 56 | 1009.3 |
| 20260902195745 | 25 | 270 | 3.2 | 6.4 | 0.00 | 0.00 | 0.00 | 55 | 1009.7 |
| 20260902195247 | 25 | 300 | 1.6 | 6.4 | 0.00 | 0.00 | 0.00 | 55 | 1009.7 |
| 20260902194745 | 25 | 315 | 3.2 | 6.4 | 0.00 | 0.00 | 0.00 | 57 | 1009.3 |
| 20260902194246 | 24 | 285 | 0.0 | 6.4 | 0.00 | 0.00 | 0.00 | 57 | 1009.7 |
| 20260902193744 | 26 | 29 | 0.0 | 4.8 | 0.00 | 0.00 | 0.00 | 54 | 1009.7 |
| 20260902193246 | 26 | 303 | 3.2 | 14.5 | 0.00 | 0.00 | 0.00 | 56 | 1009.7 |
| 20260902192245 | 23 | 321 | 6.4 | 9.7 | 0.00 | 0.00 | 0.00 | 61 | 1009.7 |
| 20260902191743 | 24 | 236 | 3.2 | 9.7 | 0.00 | 0.00 | 0.00 | 59 | 1009.7 |
| 20260902191243 | 26 | 185 | 0.0 | 4.8 | 0.00 | 0.00 | 0.00 | 56 | 1009.7 |
| 20260902190244 | 26 | 325 | 0.0 | 8.0 | 0.00 | 0.00 | 0.00 | 55 | 1009.7 |
| 20260902185742 | 25 | 186 | 0.0 | 8.0 | 0.00 | 0.00 | 0.00 | 59 | 1009.7 |
| 20260902185242 | 24 | 270 | 1.6 | 6.4 | 0.00 | 0.00 | 0.00 | 56 | 1010.0 |
| 20260902184742 | 24 | 304 | 3.2 | 6.4 | 0.00 | 0.00 | 0.00 | 60 | 1010.0 |
| 20260902184243 | 24 | 287 | 6.4 | 6.4 | 0.00 | 0.00 | 0.00 | 57 | 1009.7 |
| 20260902183741 | 24 | 261 | 0.0 | 6.4 | 0.00 | 0.00 | 0.00 | 60 | 1009.7 |
| 20260902183241 | 23 | 270 | 1.6 | 4.8 | 0.00 | 0.00 | 0.00 | 62 | 1010.0 |
| 20260902182741 | 24 | 294 | 0.0 | 3.2 | 0.00 | 0.00 | 0.00 | 60 | 1009.7 |
| 20260902182241 | 24 | 188 | 0.0 | 3.2 | 0.00 | 0.00 | 0.00 | 62 | 1009.7 |
| 20260902181740 | 23 | 265 | 3.2 | 4.8 | 0.00 | 0.00 | 0.00 | 62 | 1009.7 |
| 20260902181241 | 23 | 65 | 3.2 | 4.8 | 0.00 | 0.00 | 0.00 | 64 | 1010.0 |
| 20260902175739 | 23 | 334 | 4.8 | 11.3 | 0.00 | 0.00 | 0.00 | 63 | 1010.0 |
| 20260902175240 | 22 | 286 | 6.4 | 11.3 | 0.00 | 0.00 | 0.00 | 63 | 1010.0 |
| 20260902174737 | 23 | 277 | 1.6 | 6.4 | 0.00 | 0.00 | 0.00 | 61 | 1010.0 |
| 20260902174239 | 23 | 348 | 3.2 | 6.4 | 0.00 | 0.00 | 0.00 | 63 | 1010.3 |
| 20260902173737 | 23 | 0 | 1.6 | 6.4 | 0.00 | 0.00 | 0.00 | 61 | 1010.3 |
| 20260902172737 | 23 | 243 | 0.0 | 3.2 | 0.00 | 0.00 | 0.00 | 58 | 1010.3 |
| 20260902172237 | 23 | 334 | 0.0 | 3.2 | 0.00 | 0.00 | 0.00 | 60 | 1010.3 |
| 20260902171736 | 23 | 83 | 0.0 | 3.2 | 0.00 | 0.00 | 0.00 | 62 | 1010.0 |
| 20260902171238 | 23 | 255 | 0.0 | 4.8 | 0.00 | 0.00 | 0.00 | 63 | 1010.3 |
| 20260902170237 | 22 | 312 | 3.2 | 4.8 | 0.00 | 0.00 | 0.00 | 61 | 1010.3 |
| 20260902164735 | 22 | 246 | 1.6 | 1.6 | 0.00 | 0.00 | 0.00 | 65 | 1010.3 |
| 20260902164236 | 22 | 26 | 0.0 | 6.4 | 0.00 | 0.00 | 0.00 | 67 | 1010.3 |
| 20260902163733 | 22 | 294 | 0.0 | 6.4 | 0.00 | 0.00 | 0.00 | 72 | 1010.3 |
| 20260902163235 | 22 | 270 | 0.0 | 3.2 | 0.00 | 0.00 | 0.00 | 68 | 1010.3 |
| 20260902162234 | 22 | 165 | 0.0 | 3.2 | 0.00 | 0.00 | 0.00 | 70 | 1010.3 |
| 20260902160732 | 21 | 23 | 3.2 | 3.2 | 0.00 | 0.00 | 0.00 | 71 | 1010.3 |
| 20260902160233 | 21 | 261 | 0.0 | 4.8 | 0.00 | 0.00 | 0.00 | 76 | 1010.3 |
| 20260902155732 | 21 | 74 | 0.0 | 4.8 | 0.00 | 0.00 | 0.00 | 75 | 1010.3 |
| 20260902155233 | 21 | 354 | 0.0 | 4.8 | 0.00 | 0.00 | 0.00 | 76 | 1010.3 |
| 20260902154231 | 21 | 84 | 0.0 | 3.2 | 0.00 | 0.00 | 0.00 | 75 | 1010.3 |
| 20260902153231 | 20 | 0 | 0.0 | 3.2 | 0.00 | 0.00 | 0.00 | 75 | 1010.3 |
| 20260902152231 | 20 | 328 | 3.2 | 3.2 | 0.00 | 0.00 | 0.00 | 76 | 1010.3 |
| 20260902151729 | 21 | 255 | 0.0 | 3.2 | 0.00 | 0.00 | 0.00 | 77 | 1010.3 |
| 20260902151230 | 21 | 240 | 0.0 | 1.6 | 0.00 | 0.00 | 0.00 | 82 | 1010.3 |
| 20260902150728 | 20 | 209 | 0.0 | 4.8 | 0.00 | 0.00 | 0.00 | 77 | 1010.3 |
| 20260902150230 | 20 | 172 | 0.0 | 4.8 | 0.00 | 0.00 | 0.00 | 77 | 1010.3 |
| 20260902145729 | 21 | 270 | 0.0 | 3.2 | 0.00 | 0.00 | 0.00 | 77 | 1010.3 |
| 20260902145227 | 20 | 216 | 3.2 | 3.2 | 0.00 | 0.00 | 0.00 | 76 | 1010.3 |
| 20260902144727 | 21 | 261 | 0.0 | 1.6 | 0.00 | 0.00 | 0.00 | 76 | 1010.3 |
| 20260902144227 | 20 | 157 | 0.0 | 3.2 | 0.00 | 0.00 | 0.00 | 78 | 1010.3 |
| 20260902143727 | 22 | 188 | 0.0 | 3.2 | 0.00 | 0.00 | 0.00 | 75 | 1010.3 |
| 20260902143228 | 22 | 180 | 0.0 | 4.8 | 0.00 | 0.00 | 0.00 | 77 | 1010.3 |
| 20260902142725 | 21 | 289 | 3.2 | 4.8 | 0.00 | 0.00 | 0.00 | 74 | 1010.3 |
| 20260902142226 | 21 | 270 | 0.0 | 4.8 | 0.00 | 0.00 | 0.00 | 76 | 1010.3 |
| 20260902141227 | 22 | 294 | 0.0 | 3.2 | 0.00 | 0.00 | 0.00 | 74 | 1010.3 |
| 20260902140724 | 21 | 90 | 0.0 | 1.6 | 0.00 | 0.00 | 0.00 | 80 | 1010.3 |
| 20260902140226 | 22 | 195 | 0.0 | 1.6 | 0.00 | 0.00 | 0.00 | 77 | 1010.3 |
| 20260902135724 | 21 | 203 | 0.0 | 1.6 | 0.00 | 0.00 | 0.00 | 77 | 1010.3 |
| 20260902135225 | 21 | 206 | 0.0 | 1.6 | 0.00 | 0.00 | 0.00 | 79 | 1010.3 |
| 20260902134724 | 20 | 90 | 0.0 | 0.0 | 0.00 | 0.00 | 0.00 | 81 | 1010.3 |
| 20260902134225 | 20 | 90 | 0.0 | 0.0 | 0.00 | 0.00 | 0.00 | 86 | 1010.3 |
| 20260902133723 | 18 | 90 | 0.0 | 0.0 | 0.00 | 0.00 | 0.00 | 92 | 1010.3 |
| 20260902133224 | 17 | 90 | 0.0 | 0.0 | 0.00 | 0.00 | 0.00 | 99 | 1010.7 |
| 20260902131722 | 17 | 90 | 0.0 | 0.0 | 0.00 | 0.00 | 0.00 | 99 | 1010.3 |
| 20260902130721 | 12 | 90 | 0.0 | 1.6 | 0.00 | 0.00 | 0.00 | 99 | 1010.3 |
| 20260902130222 | 12 | 90 | 0.0 | 1.6 | 0.00 | 0.00 | 0.00 | 99 | 1010.3 |
| 20260902125720 | 12 | 90 | 0.0 | 1.6 | 0.00 | 0.00 | 0.00 | 99 | 1010.3 |
| 20260902125221 | 12 | 74 | 0.0 | 1.6 | 0.00 | 0.00 | 0.00 | 99 | 1010.7 |
| 20260902124720 | 11 | 82 | 0.0 | 0.0 | 0.00 | 0.00 | 0.00 | 99 | 1010.3 |
| 20260902123719 | 11 | 82 | 0.0 | 0.0 | 0.00 | 0.00 | 0.00 | 99 | 1010.3 |
| 20260902123220 | 11 | 82 | 0.0 | 0.0 | 0.00 | 0.00 | 0.00 | 99 | 1010.3 |
| 20260902122719 | 11 | 82 | 0.0 | 0.0 | 0.00 | 0.00 | 0.00 | 99 | 1010.3 |
| 20260902122220 | 11 | 82 | 0.0 | 0.0 | 0.00 | 0.00 | 0.00 | 99 | 1010.3 |
| 20260902121718 | 11 | 82 | 0.0 | 0.0 | 0.00 | 0.00 | 0.00 | 99 | 1010.0 |
| 20260902121219 | 10 | 82 | 0.0 | 0.0 | 0.00 | 0.00 | 0.00 | 99 | 1010.0 |
| 20260902120717 | 10 | 82 | 0.0 | 1.6 | 0.00 | 0.00 | 0.00 | 99 | 1010.0 |
| 20260902120219 | 10 | 81 | 0.0 | 0.0 | 0.00 | 0.00 | 0.00 | 99 | 1010.0 |
| 20260902115717 | 10 | 74 | 0.0 | 0.0 | 0.00 | 0.00 | 0.00 | 99 | 1010.0 |
| 20260902115218 | 10 | 74 | 0.0 | 1.6 | 0.00 | 0.00 | 0.00 | 99 | 1010.0 |
| 20260902114218 | 10 | 106 | 0.0 | 0.0 | 0.00 | 0.00 | 0.00 | 99 | 1010.3 |
| 20260902113716 | 10 | 106 | 0.0 | 0.0 | 0.00 | 0.00 | 0.00 | 99 | 1010.0 |
| 20260902113217 | 10 | 106 | 0.0 | 0.0 | 0.00 | 0.00 | 0.00 | 99 | 1010.3 |
| 20260902112203 | 11 | 106 | 0.0 | 0.0 | 0.00 | 0.00 | 0.00 | 99 | 1010.0 |
| 20260902111701 | 11 | 106 | 0.0 | 0.0 | 0.00 | 0.00 | 0.00 | 99 | 1009.7 |
| 20260902111202 | 11 | 106 | 0.0 | 0.0 | 0.00 | 0.00 | 0.00 | 99 | 1009.7 |
| 20260902110700 | 11 | 106 | 0.0 | 0.0 | 0.00 | 0.00 | 0.00 | 99 | 1009.7 |
| 20260902105700 | 11 | 106 | 0.0 | 0.0 | 0.00 | 0.00 | 0.00 | 99 | 1009.7 |
| 20260902105202 | 11 | 106 | 0.0 | 0.0 | 0.00 | 0.00 | 0.00 | 99 | 1009.7 |
| 20260902104702 | 11 | 106 | 0.0 | 1.6 | 0.00 | 0.00 | 0.00 | 99 | 1009.7 |
| 20260902104203 | 11 | 106 | 0.0 | 1.6 | 0.00 | 0.00 | 0.00 | 99 | 1010.0 |
| 20260902103701 | 11 | 106 | 0.0 | 1.6 | 0.00 | 0.00 | 0.00 | 99 | 1010.0 |
| 20260902103202 | 11 | 74 | 0.0 | 1.6 | 0.00 | 0.00 | 0.00 | 99 | 1010.0 |
| 20260902102701 | 11 | 75 | 0.0 | 1.6 | 0.00 | 0.00 | 0.00 | 99 | 1010.0 |
| 20260902102203 | 11 | 75 | 0.0 | 1.6 | 0.00 | 0.00 | 0.00 | 99 | 1010.0 |
| 20260902101701 | 11 | 180 | 0.0 | 0.0 | 0.00 | 0.00 | 0.00 | 99 | 1009.7 |
| 20260902101202 | 12 | 180 | 0.0 | 0.0 | 0.00 | 0.00 | 0.00 | 99 | 1010.0 |
| 20260902100701 | 12 | 180 | 0.0 | 0.0 | 0.00 | 0.00 | 0.00 | 99 | 1010.0 |
| 20260902095700 | 12 | 180 | 0.0 | 0.0 | 0.00 | 0.00 | 0.00 | 99 | 1010.0 |
| 20260902095203 | 12 | 180 | 0.0 | 0.0 | 0.00 | 0.00 | 0.00 | 99 | 1010.0 |
| 20260902094701 | 12 | 180 | 0.0 | 0.0 | 0.00 | 0.00 | 0.00 | 99 | 1010.0 |
| 20260902094201 | 12 | 180 | 0.0 | 0.0 | 0.00 | 0.00 | 0.00 | 99 | 1010.0 |
| 20260902093700 | 11 | 180 | 0.0 | 0.0 | 0.00 | 0.00 | 0.00 | 99 | 1009.7 |
| 20260902093202 | 11 | 180 | 0.0 | 0.0 | 0.00 | 0.00 | 0.00 | 99 | 1009.7 |